Regional Weather Roundup
Issued by NWS

Home | Current Version | Previous Version | Graphics & Text | Print | Product List | Glossary On
Versions: 1 2 3 4 5 6 7 8 9 10 11 12 13 14 15 16 17 18 19 20 21 22 23 24 25 26 27 28 29 30 31 32 33 34 35 36 37 38 39 40 41 42 43 44 45 46 47 48 49 50
000
ASUS45 KPSR 220600
RWRAZ

PRELIMINARY ARIZONA REGIONAL HOURLY WEATHER ROUNDUP
NATIONAL WEATHER SERVICE PHOENIX AZ
1100 PM MST TUE OCT 21 2014

NOTE: FAIR INDICATES FEW OR NO CLOUDS BELOW 12,000 FEET WITH NO
SIGNIFICANT WEATHER AND/OR OBSTRUCTIONS TO VISIBILITY.

AZZ001>003-036-220700-
NORTHWEST ARIZONA

CITY           SKY/WX    TMP DP  RH WIND       PRES   REMARKS
KINGMAN        CLEAR     60  44  55 S10       29.97S
6HR MIN TEMP:  60; 6HR MAX TEMP:  76;

$$

AZZ004>008-015-016-018-220700-
NORTH CENTRAL ARIZONA

CITY           SKY/WX    TMP DP  RH WIND       PRES   REMARKS
GRAND CANYON   PTCLDY    38  30  73 NE5       30.15R WCI  34
6HR MIN TEMP:  36; 6HR MAX TEMP:  64;

PRESCOTT       CLEAR     53  43  68 S8        30.08R
6HR MIN TEMP:  52; 6HR MAX TEMP:  71;

FLAGSTAFF      CLEAR     43  37  79 CALM      30.18R
6HR MIN TEMP:  41; 6HR MAX TEMP:  61;

PAYSON         CLEAR     54  46  76 CALM      30.10R
PAGE           CLEAR     68  36  30 SW5       29.98R
6HR MIN TEMP:  65; 6HR MAX TEMP:  75;

$$

AZZ009>014-017-220700-
NORTHEAST ARIZONA

CITY           SKY/WX    TMP DP  RH WIND       PRES   REMARKS
WINSLOW        NOT AVBL
SAINT JOHNS    CLEAR     55  48  77 CALM      30.10R
6HR MIN TEMP:  55; 6HR MAX TEMP:  68;

WINDOW ROCK    CLEAR     44  39  82 N3        30.15R
6HR MIN TEMP:  41; 6HR MAX TEMP:  62; 6HR PCP: TRACE;

$$

AZZ023-220700-
GREATER PHOENIX AREA

CITY           SKY/WX    TMP DP  RH WIND       PRES   REMARKS
PHOENIX        CLEAR     77  55  46 E5        29.83S
6HR MIN TEMP:  75; 6HR MAX TEMP:  88;

LUKE AFB       CLEAR     69  55  59 N7        29.84R
6HR MIN TEMP:  69; 6HR MAX TEMP:  86;

DEER VALLEY    CLEAR     72  49  44 NE3       29.86R
6HR MIN TEMP:  71; 6HR MAX TEMP:  85;

SCOTTSDALE     CLEAR     75  50  41 CALM      29.87S
6HR MIN TEMP:  75; 6HR MAX TEMP:  85;

MESA-GATEWAY   PTCLDY    70  52  52 E7        29.87S
$$

AZZ027-028-220700-
SOUTHWEST MARICOPA COUNTY AND PINAL COUNTY

CITY           SKY/WX    TMP DP  RH WIND       PRES   REMARKS
CASA GRANDE    CLEAR     70  48  46 CALM      29.87S
6HR MIN TEMP:  70; 6HR MAX TEMP:  84;

$$

AZZ503-504-507>509-220700-
SOUTHEAST ARIZONA

CITY           SKY/WX    TMP DP  RH WIND       PRES   REMARKS
TUCSON         CLEAR     69  48  47 CALM      29.94S
6HR MIN TEMP:  68; 6HR MAX TEMP:  84;

DAVIS-MONTHAN  CLEAR     66  51  58 SE9       29.93S
6HR MIN TEMP:  66; 6HR MAX TEMP:  81;

NOGALES        PTCLDY    58  45  62 MISG      30.01R
6HR MIN TEMP:  57; 6HR MAX TEMP:  78;

SIERRA VISTA   PTCLDY    61  45  55 CALM      30.05R
SAFFORD        PTCLDY    63  54  72 SE5       29.98R
6HR MIN TEMP:  63; 6HR MAX TEMP:  77;

$$

AZZ020-021-025-026-031-220700-
SOUTHWEST ARIZONA

CITY           SKY/WX    TMP DP  RH WIND       PRES   REMARKS
YUMA           PTCLDY    79  61  53 SE5       29.80R
6HR MIN TEMP:  77; 6HR MAX TEMP:  93;

$$

CAZ031-033-041-043-047-048-061-220700-
SOUTHERN CALIFORNIA

CITY           SKY/WX    TMP DP  RH WIND       PRES   REMARKS
DOWNTOWN L.A.  CLEAR     66  61  84 CALM      29.87R
6HR MIN TEMP:  66; 6HR MAX TEMP:  73;

L.A. AIRPORT   CLEAR     67  62  84 SE5       29.87S
6HR MIN TEMP:  67; 6HR MAX TEMP:  70;

SAN DIEGO      PTCLDY    67  61  81 CALM      29.90S
6HR MIN TEMP:  67; 6HR MAX TEMP:  73;

BURBANK        CLEAR     65  58  78 CALM      29.88S
6HR MIN TEMP:  65; 6HR MAX TEMP:  75;

ONTARIO        PTCLDY    65  55  70 CALM      29.89S
6HR MIN TEMP:  65; 6HR MAX TEMP:  80;

RIVERSIDE      CLEAR     65  57  75 CALM      29.89S
6HR MIN TEMP:  65; 6HR MAX TEMP:  80;

PALM SPRINGS   CLEAR     77  41  27 CALM      29.83R
6HR MIN TEMP:  77; 6HR MAX TEMP:  93;

EL CENTRO NAS  PTCLDY    77  45  32 W8        29.79R
6HR MIN TEMP:  76; 6HR MAX TEMP:  93;

IMPERIAL       CLEAR     75  50  41 W8        29.78R
6HR MIN TEMP:  75; 6HR MAX TEMP:  93;

BLYTHE         CLEAR     76  41  28 NE3       29.80R
6HR MIN TEMP:  76; 6HR MAX TEMP:  91;

$$

NVZ020-UTZ003-220700-
SOUTHERN NEVADA-UTAH

CITY           SKY/WX    TMP DP  RH WIND       PRES   REMARKS
LAS VEGAS      NOT AVBL
SALT LAKE CITY PTCLDY    46  36  68 W5        30.09R
6HR MIN TEMP:  44; 6HR MAX TEMP:  59;

$$

NMZ009-TXZ055-220700-
NEW MEXICO-WEST TEXAS

CITY           SKY/WX    TMP DP  RH WIND       PRES   REMARKS
ALBUQUERQUE    MOCLDY    58  47  66 CALM      30.11F
6HR MIN TEMP:  56; 6HR MAX TEMP:  67;

EL PASO        PTCLDY    61  55  81 CALM      30.05S
6HR MIN TEMP:  61; 6HR MAX TEMP:  70;

$$


........................KEY........................
SKY/WX - SKY CONDITION/WEATHER
TMP    - TEMPERATURE IN FAHRENHEIT
DP     - DEW POINT IN FAHRENHEIT
RH     - RELATIVE HUMIDITY IN PERCENT
WIND   - DIRECTION AND SPEED IN MILES PER HOUR (MPH)
VRB    - VARIABLE WIND DIRECTION
PRES   - MEAN SEA LEVEL PRESSURE IN INCHES OF MERCURY
         F - FALLING PRESSURE   R - RISING PRESSURE
         S - STEADY PRESSURE
VSB    - VISIBILITY IN MILES
HX     - HEAT INDEX IN FAHRENHEIT
WCI    - WIND CHILL INDEX IN FAHRENHEIT
TC     - TEMPERATURE IN CELSIUS WHICH IS ALSO KNOWN AS
         TEMPERATURE IN CENTIGRADE
AFB    - AIR FORCE BASE
         LUKE AFB IS LUKE AIR FORCE BASE
         DAVIS-MONTHAN IS DAVIS-MONTHAN AIR FORCE BASE
NAS    - NAVAL AIR STATION
         EL CENTRO NAS IS EL CENTRO NAVAL AIR STATION
N/A    - NOT AVAILABLE



USA.gov is the U.S. government's official web portal to all federal, state and local government web resources and services.